Terminal Aerodrome Forecast
Issued by NWS

Current Version | Previous Version | Graphics & Text | Print | Product List | Glossary On
Versions: 1 2 3 4 5 6 7 8 9 10 11 12 13 14 15 16 17 18 19 20
000
FTUS41 KPBZ 171100
TAFHLG
TAF
KHLG 171130Z 1712/1812 26011KT P6SM OVC015
     FM171500 26014G22KT P6SM BKN025
     FM171900 27016G25KT P6SM BKN035=

USA.gov is the U.S. government's official web portal to all federal, state and local government web resources and services.